Meteo Giornale » Osservazioni meteo Francia » Le Luc

ore: 11:30 - Osservazioni Meteo Le Luc
Lat. 43° 23' N Lon. 6° 23' E Alt. 80 metri s.l.m.

sereno Europe/Paris

27 °C

Sereno

Temp. 24 Ore

18 °C

30 °C

Ovest/Nord-Ovest

24 Km/h

Dew point 11 °C

Umidità 36 %

Visibilità  10 Km

Il sole sorge alle ore 05:53

Il sole tramonta alle ore 21:20

Data e Ora Cielo e Fenomeni T °C DP °C Um. % Pres. hPa Vis. km Vento km/h
Oggi h: 11:30 sereno Sereno 27 11 36 1015 10 O/NO 24
Oggi h: 11:00 sereno Sereno 26 11 39 1015 10 O/NO 25.9
Oggi h: 10:30 sereno Sereno 25 11 41 1015 10 O/NO 27.8
Oggi h: 10:00 sereno Sereno 24 12 47 1015 10 O 24
Oggi h: 09:30 sereno Sereno 23 12 49 1015 10 O 20.3
Oggi h: 09:00 sereno Sereno 22 12 53 1016 10 O 18.5
Oggi h: 08:30 sereno Sereno 21 12 56 1016 10 O 13
Oggi h: 08:00 sereno Sereno 20 13 64 1016 10 O/SO 16.7
Oggi h: 07:30 sereno Sereno 19 12 63 1016 10 O/SO 18.5
Oggi h: 06:30 sereno Sereno 19 12 63 1016 10 O 22.2
Oggi h: 06:00 sereno Sereno 18 12 67 1016 10 O 18.5
Oggi h: 05:30 sereno Sereno 19 12 63 1016 10 O/SO 11.1
Oggi h: 05:00 sereno Sereno 19 12 63 1016 10 O 11.1
Oggi h: 04:30 sereno Sereno 19 12 63 1016 10 O/SO 13
Oggi h: 04:00 sereno Sereno 20 12 59 1017 10 O/SO 14.8
Oggi h: 03:30 sereno Sereno 20 12 59 1017 10 O 18.5
Oggi h: 03:00 sereno Sereno 21 12 56 1017 10 O 20.3
Oggi h: 02:30 sereno Sereno 21 12 56 1017 10 O 11.1
Oggi h: 02:00 sereno Sereno 21 11 52 1017 10 O 22.2
Oggi h: 01:30 sereno Sereno 21 11 52 1017 10 O 7.4
Oggi h: 01:00 sereno Sereno 22 11 49 1017 10 N 7.4
Oggi h: 00:30 sereno Sereno 22 11 49 1017 10 O 18.5
Oggi h: 00:00 sereno Sereno 23 11 46 1017 10 O/NO 13
Ieri h: 23:30 sereno Sereno 23 12 49 1017 10 N 5.5
Ieri h: 23:00 sereno Sereno 23 12 49 1017 10 O 11.1
Ieri h: 22:30 sereno Sereno 24 13 50 1017 10 O 16.7
Ieri h: 22:00 sereno Sereno 25 13 47 1017 10 O 18.5
Ieri h: 21:30 sereno Sereno 25 13 47 1016 10 O 20.3
Ieri h: 21:00 sereno Sereno 26 13 44 1016 10 O 22.2
Ieri h: 20:30 sereno Sereno 27 13 42 1016 10 O 22.2
Ieri h: 20:00 sereno Sereno 28 13 39 1016 10 O 24
Ieri h: 19:30 sereno Sereno 28 13 39 1016 10 O 24
Ieri h: 19:00 sereno Sereno 28 13 39 1016 10 O 24
Ieri h: 18:30 sereno Sereno 29 13 37 1016 10 O 25.9
Ieri h: 18:00 sereno Sereno 29 12 35 1016 10 O 27.8
Ieri h: 17:30 sereno Sereno 29 11 32 1016 10 O 27.8
Ieri h: 17:00 sereno Sereno 29 11 32 1016 10 O 25.9
Ieri h: 16:30 sereno Sereno 30 11 30 1016 10 O 25.9
Ieri h: 16:00 sereno Sereno 29 10 30 1016 10 O 20.3
Ieri h: 15:30 sereno Sereno 30 9 27 1016 10 O 24
Ieri h: 15:00 sereno Sereno 30 9 27 1016 10 O 22.2
Ieri h: 14:30 sereno Sereno 29 12 35 1016 10 N 18.5
Ieri h: 14:00 sereno Sereno 28 12 37 1017 10 O/SO 16.7
Ieri h: 13:30 sereno Sereno 29 11 32 1017 10 O/SO 14.8
Ieri h: 13:00 sereno Sereno 28 11 34 1017 10 O 13